FW4661 Weather Reports


Display with metric or nautical units.
time (UTC)temp
F
wind
direction
speed
MPH
gust
MPH
rain 1hr
in
rain 24hr
in
rain mn
in
humidity
%
barometer
mb
20260505073003 49 343 2.0 11.0 0.00 0.00 0.00 83 1045.0
20260505072214 49 358 4.0 11.0 0.00 0.00 0.00 83 1044.8
20260505071004 49 2 3.0 20.0 0.00 0.00 0.00 83 1044.8
20260505070004 49 351 5.0 11.0 0.00 0.00 0.00 82 1045.1
20260505065003 49 360 3.0 8.0 0.00 0.00 0.00 82 1045.1
20260505064003 49 317 2.0 6.0 0.00 0.00 0.00 82 1044.9
20260505063003 49 339 2.0 8.0 0.00 0.00 0.00 82 1045.1
20260505062003 49 324 4.0 13.0 0.00 0.00 0.00 82 1045.0
20260505055003 50 180 1.0 4.0 0.00 0.00 0.00 80 1045.3
20260505051216 51 315 2.0 5.0 0.00 0.00 0.00 80 1045.3
20260505041003 52 18 4.0 10.0 0.00 0.00 0.00 76 1045.5
20260505040004 52 13 5.0 11.0 0.00 0.00 0.00 75 1045.4
20260505035004 52 352 4.0 9.0 0.00 0.00 0.00 74 1045.6
20260505034003 52 347 4.0 18.0 0.00 0.00 0.00 74 1045.6
20260505033003 52 353 3.0 11.0 0.00 0.00 0.00 74 1045.8
20260505032216 52 336 3.0 8.0 0.00 0.00 0.00 74 1045.7
20260505031217 52 342 2.0 9.0 0.00 0.00 0.00 72 1045.8
20260505030004 53 343 4.0 9.0 0.00 0.00 0.00 71 1045.8
20260505025004 53 338 5.0 17.0 0.00 0.00 0.00 72 1045.7
20260505024004 53 71 4.0 11.0 0.00 0.00 0.00 71 1045.8
20260505023003 54 356 4.0 8.0 0.00 0.00 0.00 69 1045.8
20260505022003 54 348 5.0 8.0 0.00 0.00 0.00 69 1045.7
20260505021004 55 304 2.0 8.0 0.00 0.00 0.00 68 1046.1
20260505020004 55 348 2.0 9.0 0.00 0.00 0.00 68 1046.3
20260505015003 56 325 2.0 14.0 0.00 0.00 0.00 68 1046.4
20260505014004 56 343 4.0 9.0 0.00 0.00 0.00 68 1046.9
20260505013003 56 30 2.0 8.0 0.00 0.00 0.00 68 1047.0
20260505012003 56 345 4.0 10.0 0.00 0.00 0.00 68 1047.1
20260505011003 55 320 4.0 8.0 0.00 0.00 0.00 69 1047.1
20260505010004 55 341 3.0 15.0 0.00 0.00 0.00 68 1047.3
20260505005004 55 331 1.0 7.0 0.00 0.00 0.00 69 1047.3
20260505004003 55 209 0.0 4.0 0.00 0.00 0.00 71 1047.8
20260505003003 54 191 2.0 7.0 0.00 0.00 0.00 72 1048.0
20260505002004 53 210 1.0 11.0 0.00 0.00 0.00 73 1048.4
20260505001003 53 238 1.0 8.0 0.00 0.00 0.00 76 1048.4
20260505000003 52 213 4.0 14.0 0.00 0.00 0.00 77 1048.7
20260504235003 52 211 2.0 13.0 0.00 0.00 0.00 78 1049.1
20260504234003 52 218 4.0 13.0 0.00 0.00 0.00 80 1049.0
20260504233003 51 215 2.0 6.0 0.00 0.00 0.00 80 1049.1
20260504232004 51 204 2.0 9.0 0.00 0.00 0.00 81 1049.1
20260504231215 51 234 1.0 9.0 0.00 0.00 0.00 82 1049.2
20260504230216 51 233 2.0 5.0 0.00 0.00 0.00 82 1048.9
20260504225003 50 235 2.0 7.0 0.00 0.00 0.00 83 1049.2
20260504224004 50 208 2.0 15.0 0.00 0.00 0.00 84 1049.2
20260504221004 49 270 17.0 23.0 0.00 0.00 0.00 86 1049.4
20260504214003 49 219 4.0 10.0 0.00 0.00 0.00 86 1049.5
20260504213003 48 210 2.0 7.0 0.00 0.00 0.00 86 1049.4
20260504212003 48 169 2.0 5.0 0.00 0.00 0.00 86 1049.6
20260504211003 48 321 0.0 7.0 0.00 0.00 0.00 87 1049.4
20260504210004 48 281 0.0 3.0 0.00 0.00 0.00 87 1049.7
20260504205003 48 230 0.0 10.0 0.00 0.00 0.00 87 1049.4
20260504204214 48 225 0.0 4.0 0.00 0.00 0.00 87 1049.5
20260504203004 48 216 1.0 8.0 0.00 0.00 0.00 86 1049.5
20260504202003 48 224 0.0 6.0 0.00 0.00 0.00 86 1049.5
20260504201003 48 217 2.0 6.0 0.00 0.00 0.00 87 1049.5
20260504200218 48 221 0.0 4.0 0.00 0.00 0.00 87 1049.6
20260504195004 48 207 0.0 4.0 0.00 0.00 0.00 86 1049.4
20260504194003 48 215 0.0 4.0 0.00 0.00 0.00 86 1049.3
20260504193003 48 232 0.0 4.0 0.00 0.00 0.00 86 1049.1
20260504192003 48 215 2.0 4.0 0.00 0.00 0.00 86 1049.3
20260504191003 49 211 0.0 4.0 0.00 0.00 0.00 86 1049.3
20260504190004 49 202 1.0 6.0 0.00 0.00 0.00 86 1049.3
20260504185004 49 217 0.0 8.0 0.00 0.00 0.00 86 1049.2
20260504184215 49 217 1.0 4.0 0.00 0.01 0.00 86 1049.1
20260504183003 49 196 1.0 2.0 0.00 0.01 0.00 86 1049.0
20260504182003 49 238 0.0 2.0 0.00 0.01 0.00 86 1049.1
20260504181004 49 205 0.0 3.0 0.00 0.01 0.00 86 1049.3
20260504180004 49 222 0.0 10.0 0.00 0.01 0.00 86 1049.2
20260504175003 49 225 0.0 1.0 0.00 0.01 0.00 86 1049.1
20260504174216 49 0 0.0 0.0 0.00 0.01 0.00 86 1049.1
20260504173004 49 292 0.0 2.0 0.00 0.01 0.00 86 1049.2
20260504172003 49 231 0.0 3.0 0.00 0.01 0.00 86 1049.3
20260504171004 49 225 0.0 1.0 0.00 0.01 0.00 86 1049.2
20260504141003 50 225 0.0 1.0 0.00 0.01 0.00 86 1049.9
20260504120218 50 0 0.0 0.0 0.00 0.01 0.00 85 1050.4
20260504082003 51 238 1.0 2.0 0.00 0.01 0.01 84 1050.7
20260504081004 51 248 0.0 2.0 0.00 0.01 0.01 84 1050.6